�N����,����,�~����,�C��,���x,�C��,����,���ϕ���,�ő�u�ԕ���,�ő厞����,���˗�,�I�_���x,�n�����x,�ő啗���N��,DTYPE
"20/06/09","00:10",0.0,19.8,70.5,1012.8,281.2,0.8,1.1,268.4,0.00,14.3,22.4,"00:00:16",1
"20/06/09","00:20",0.0,19.6,70.9,1012.6,286.2,0.7,1.2,345.0,0.00,14.2,22.3,"00:19:36",1
"20/06/09","00:30",0.0,19.4,72.0,1012.6,322.9,1.0,1.3,321.2,0.00,14.3,22.2,"00:20:08",1
"20/06/09","00:40",0.0,19.1,73.8,1012.8,280.0,1.0,1.3,299.3,0.00,14.4,22.3,"00:32:56",1
"20/06/09","00:50",0.0,19.0,74.6,1012.8,296.8,1.0,1.4,315.6,0.00,14.4,22.0,"00:44:08",1
"20/06/09","01:00",0.0,19.1,74.8,1013.0,288.1,1.1,1.8,298.2,0.00,14.6,21.9,"00:59:36",1
"20/06/09","01:10",0.0,19.0,74.9,1013.0,277.4,1.0,1.4,330.3,0.00,14.5,21.9,"01:00:08",1
"20/06/09","01:20",0.0,19.0,74.9,1013.3,287.0,1.0,1.6,263.3,0.00,14.5,21.9,"01:15:04",1
"20/06/09","01:30",0.0,18.9,74.9,1012.8,286.5,0.8,1.2,309.1,0.00,14.4,21.7,"01:23:04",1
"20/06/09","01:40",0.0,18.8,75.2,1013.3,311.2,1.0,1.4,334.3,0.00,14.4,21.7,"01:31:04",1
"20/06/09","01:50",0.0,18.6,76.1,1013.3,300.3,1.0,1.6,317.7,0.00,14.4,21.7,"01:49:20",1
"20/06/09","02:00",0.0,18.5,76.8,1013.0,284.1,0.8,1.7,338.7,0.00,14.4,21.5,"01:58:40",1
"20/06/09","02:10",0.0,18.5,77.3,1013.0,294.7,1.0,1.3,322.5,0.00,14.5,21.6,"02:00:08",1
"20/06/09","02:20",0.0,18.5,77.6,1013.0,287.0,0.8,1.4,327.6,0.00,14.6,21.3,"02:13:52",1
"20/06/09","02:30",0.0,18.5,78.1,1013.3,289.0,1.0,1.9,306.7,0.00,14.7,21.3,"02:29:36",1
"20/06/09","02:40",0.0,18.7,78.8,1013.0,326.9,1.2,1.7,323.3,0.00,15.0,21.4,"02:32:08",1
"20/06/09","02:50",0.0,18.4,79.5,1013.0,291.6,1.0,1.3,306.8,0.00,14.8,21.2,"02:42:48",1
"20/06/09","03:00",0.0,18.4,80.0,1013.3,296.6,1.1,1.6,331.2,0.00,14.9,21.3,"02:58:08",1
"20/06/09","03:10",0.0,18.5,80.3,1013.3,306.1,1.3,2.4,326.4,0.00,15.1,21.1,"03:01:44",1
"20/06/09","03:20",0.0,18.4,80.5,1013.5,296.0,1.0,1.7,308.3,0.00,15.0,21.0,"03:19:44",1
"20/06/09","03:30",0.0,18.5,80.8,1013.3,300.7,1.2,2.5,325.5,0.00,15.2,21.1,"03:27:52",1
"20/06/09","03:40",0.0,18.5,80.9,1013.5,294.1,1.0,1.8,321.0,0.00,15.2,20.9,"03:30:24",1
"20/06/09","03:50",0.0,18.5,81.1,1013.5,295.8,1.0,1.4,305.4,0.00,15.2,21.3,"03:47:28",1
"20/06/09","04:00",0.0,18.4,81.3,1013.3,295.5,1.0,1.6,332.8,0.00,15.2,20.9,"03:50:02",1
"20/06/09","04:10",0.0,18.5,81.6,1013.3,320.0,1.1,1.7,318.5,0.00,15.3,20.8,"04:05:52",1
"20/06/09","04:20",0.0,18.1,82.0,1013.8,301.4,0.8,1.2,312.6,0.00,15.0,20.7,"04:12:08",1
"20/06/09","04:30",0.0,18.0,82.7,1013.5,295.2,1.0,1.7,328.5,0.00,15.1,21.0,"04:29:28",1
"20/06/09","04:40",0.0,18.1,83.1,1013.5,276.1,1.0,1.4,275.1,0.00,15.2,20.8,"04:38:16",1
"20/06/09","04:50",0.0,18.2,83.4,1013.8,285.9,0.8,1.1,309.5,0.00,15.4,20.8,"04:40:32",1
"20/06/09","05:00",0.0,18.3,83.6,1013.8,291.8,1.0,1.9,325.6,0.00,15.5,20.8,"04:56:40",1
"20/06/09","05:10",0.0,18.4,83.9,1013.8,318.7,1.0,1.4,325.4,0.00,15.7,20.7,"05:03:36",1
"20/06/09","05:20",0.0,18.6,84.1,1013.8,322.6,1.2,1.4,326.4,0.00,15.9,20.7,"05:13:28",1
"20/06/09","05:30",0.0,18.5,84.5,1013.5,318.4,1.0,1.4,323.6,0.01,15.9,20.6,"05:20:16",1
"20/06/09","05:40",0.0,18.5,84.9,1013.8,310.6,0.8,1.9,326.6,0.01,16.0,20.6,"05:39:28",1
"20/06/09","05:50",0.0,18.8,85.1,1014.0,295.8,0.8,1.7,328.9,0.02,16.3,20.6,"05:40:40",1
"20/06/09","06:00",0.0,19.1,85.0,1013.8,292.3,1.0,1.4,312.5,0.03,16.6,20.8,"05:56:00",1
"20/06/09","06:10",0.0,19.5,84.9,1014.0,305.9,1.0,1.3,308.8,0.03,16.9,20.8,"06:00:32",1
"20/06/09","06:20",0.0,19.8,84.7,1013.8,317.8,1.1,1.6,321.6,0.04,17.2,20.8,"06:18:16",1
"20/06/09","06:30",0.0,20.1,84.5,1013.8,315.5,1.2,1.6,326.0,0.06,17.4,21.1,"06:22:24",1
"20/06/09","06:40",0.0,20.8,84.3,1014.0,321.8,0.7,1.3,335.5,0.08,18.1,21.0,"06:33:36",1
"20/06/09","06:50",0.0,21.4,83.7,1013.5,318.3,0.3,0.9,310.7,0.08,18.6,21.1,"06:40:32",1
"20/06/09","07:00",0.0,21.7,83.0,1013.5,324.7,0.3,0.8,350.0,0.07,18.7,21.4,"06:59:52",1
"20/06/09","07:10",0.0,21.7,81.7,1013.5,354.4,0.6,1.3,335.8,0.08,18.5,21.5,"07:09:52",1
"20/06/09","07:20",0.0,21.8,80.6,1013.5,330.9,1.0,1.7,341.8,0.09,18.4,21.7,"07:12:00",1
"20/06/09","07:30",0.0,22.7,79.6,1013.3,339.8,0.2,0.6,354.4,0.12,19.0,21.6,"07:23:36",1
"20/06/09","07:40",0.0,23.4,77.4,1013.5,332.5,0.5,1.4,339.0,0.17,19.3,21.9,"07:38:08",1
"20/06/09","07:50",0.0,24.4,74.2,1013.0,344.2,0.6,1.6,345.9,0.21,19.5,22.1,"07:46:52",1
"20/06/09","08:00",0.0,25.5,71.1,1013.0,217.5,0.3,1.6,231.4,0.25,19.9,22.4,"07:53:12",1
"20/06/09","08:10",0.0,26.2,66.2,1012.8,28.3,0.7,2.1,24.4,0.30,19.4,22.8,"08:06:08",1
"20/06/09","08:20",0.0,26.8,63.0,1012.1,15.3,0.8,2.6,117.1,0.34,19.2,23.0,"08:19:44",1
"20/06/09","08:30",0.0,26.8,63.2,1012.1,148.5,1.1,2.4,117.5,0.37,19.3,23.4,"08:20:32",1
"20/06/09","08:40",0.0,27.0,62.2,1012.6,217.1,1.1,2.2,226.3,0.38,19.2,23.7,"08:32:48",1
"20/06/09","08:50",0.0,26.5,63.0,1012.8,198.8,1.5,2.7,202.7,0.23,18.9,24.0,"08:43:28",1
"20/06/09","09:00",0.0,26.7,62.9,1012.8,190.7,1.7,3.5,229.3,0.36,19.1,24.3,"08:56:40",1
"20/06/09","09:10",0.0,27.7,60.0,1013.0,146.2,1.2,4.1,206.3,0.43,19.3,24.6,"09:00:02",1
"20/06/09","09:20",0.0,27.8,60.9,1013.0,182.6,1.7,3.2,185.1,0.45,19.6,25.1,"09:10:08",1
"20/06/09","09:30",0.0,28.5,58.6,1013.3,166.7,1.0,2.5,227.8,0.46,19.6,25.3,"09:20:02",1
"20/06/09","09:40",0.0,28.2,58.5,1013.3,184.5,2.0,3.5,223.5,0.48,19.3,25.4,"09:34:08",1
"20/06/09","09:50",0.0,28.6,55.5,1013.8,143.2,1.5,3.5,213.2,0.50,18.9,26.0,"09:48:08",1
"20/06/09","10:00",0.0,29.2,52.7,1014.0,164.1,1.1,2.9,165.0,0.50,18.6,26.2,"09:52:56",1
"20/06/09","10:10",0.0,29.6,51.8,1014.2,183.1,1.5,2.9,123.6,0.52,18.7,26.7,"10:07:12",1
"20/06/09","10:20",0.0,29.7,50.0,1014.2,116.6,1.7,3.6,141.0,0.54,18.2,27.0,"10:17:44",1
"20/06/09","10:30",0.0,29.7,48.3,1014.2,132.3,1.7,3.7,125.2,0.56,17.7,27.4,"10:25:28",1
"20/06/09","10:40",0.0,29.8,48.0,1014.0,115.9,2.1,4.7,115.1,0.56,17.7,27.7,"10:36:40",1
"20/06/09","10:50",0.0,30.4,47.0,1014.0,172.2,2.1,4.1,222.1,0.58,17.9,28.0,"10:49:20",1
"20/06/09","11:00",0.0,30.6,45.4,1013.8,146.4,1.7,3.3,146.4,0.51,17.5,28.3,"10:52:08",1
"20/06/09","11:10",0.0,30.0,45.3,1013.5,154.8,2.6,4.5,187.9,0.47,16.9,28.7,"11:07:12",1
"20/06/09","11:20",0.0,30.7,45.5,1013.3,172.9,1.5,2.9,177.5,0.44,17.6,28.7,"11:10:08",1
"20/06/09","11:30",0.0,30.0,46.6,1013.5,151.7,2.5,4.8,143.2,0.40,17.4,28.7,"11:22:32",1
"20/06/09","11:40",0.0,30.3,47.7,1013.0,166.9,2.2,3.7,121.3,0.47,18.0,28.9,"11:32:24",1
"20/06/09","11:50",0.0,30.9,47.0,1013.3,182.2,2.2,4.4,201.0,0.57,18.3,29.0,"11:45:12",1
"20/06/09","12:00",0.0,30.9,47.0,1013.5,163.0,2.0,4.5,202.6,0.48,18.3,29.3,"11:51:04",1
"20/06/09","12:10",0.0,31.2,46.2,1013.0,207.2,1.8,3.9,229.4,0.49,18.3,29.0,"12:00:32",1
"20/06/09","12:20",0.0,31.5,45.1,1013.0,178.6,1.5,3.5,175.1,0.52,18.2,29.5,"12:12:48",1
"20/06/09","12:30",0.0,31.6,45.1,1013.3,147.3,2.0,3.6,166.4,0.49,18.3,29.6,"12:25:20",1
"20/06/09","12:40",0.0,31.9,43.7,1013.3,119.2,1.7,4.2,112.6,0.54,18.1,29.6,"12:37:44",1
"20/06/09","12:50",0.0,31.7,44.2,1012.8,187.5,1.8,3.5,219.3,0.45,18.1,29.6,"12:42:56",1
"20/06/09","13:00",0.0,31.7,43.7,1012.8,193.6,2.2,5.0,212.0,0.53,17.9,29.7,"12:54:48",1
"20/06/09","13:10",0.0,32.1,43.2,1013.3,178.3,2.2,3.5,183.8,0.54,18.1,29.7,"13:03:04",1
"20/06/09","13:20",0.0,32.0,43.5,1012.6,125.6,2.0,4.3,139.8,0.50,18.1,29.5,"13:10:02",1
"20/06/09","13:30",0.0,31.6,43.4,1012.6,165.4,2.2,5.5,204.9,0.41,17.7,29.5,"13:27:36",1
"20/06/09","13:40",0.0,32.0,41.8,1012.8,176.5,2.3,4.3,205.8,0.45,17.5,29.3,"13:36:00",1
"20/06/09","13:50",0.0,31.7,43.7,1012.6,129.1,2.0,4.1,133.9,0.30,17.9,29.4,"13:46:16",1
"20/06/09","14:00",0.0,32.6,41.9,1012.3,177.7,1.0,2.1,136.3,0.41,18.0,29.2,"13:51:44",1
"20/06/09","14:10",0.0,32.1,43.4,1012.6,162.9,1.8,3.7,210.5,0.33,18.1,29.4,"14:02:40",1
"20/06/09","14:20",0.0,31.6,44.2,1011.9,176.8,2.5,4.5,225.7,0.34,18.0,29.2,"14:18:32",1
"20/06/09","14:30",0.0,32.4,43.8,1012.1,186.3,1.2,3.3,174.5,0.39,18.6,29.5,"14:29:52",1
"20/06/09","14:40",0.0,31.8,44.0,1011.9,218.0,2.6,4.9,207.6,0.36,18.1,29.5,"14:33:28",1
"20/06/09","14:50",0.0,32.3,42.7,1011.9,198.8,1.6,3.7,213.2,0.40,18.1,29.5,"14:46:56",1
"20/06/09","15:00",0.0,32.9,42.6,1011.9,227.5,1.6,3.2,219.9,0.44,18.6,29.7,"14:54:56",1
"20/06/09","15:10",0.0,32.2,44.8,1011.9,174.8,2.2,4.7,129.4,0.40,18.7,29.6,"15:07:36",1
"20/06/09","15:20",0.0,32.2,45.0,1011.9,205.9,2.0,4.2,200.2,0.35,18.8,29.4,"15:12:24",1
"20/06/09","15:30",0.0,32.0,44.7,1011.4,147.1,1.7,3.9,160.2,0.33,18.5,29.4,"15:24:16",1
"20/06/09","15:40",0.0,31.7,47.0,1011.9,201.3,2.0,4.5,212.7,0.25,19.0,29.6,"15:34:56",1
"20/06/09","15:50",0.0,30.4,49.4,1011.4,188.2,2.8,4.7,199.1,0.13,18.7,29.4,"15:43:20",1
"20/06/09","16:00",0.0,30.1,50.0,1011.2,186.4,2.3,3.7,174.2,0.12,18.6,29.2,"15:50:16",1
"20/06/09","16:10",0.0,30.2,50.4,1010.7,187.6,2.0,3.9,202.2,0.13,18.8,29.2,"16:01:28",1
"20/06/09","16:20",0.0,30.5,49.5,1010.4,189.6,1.8,3.5,191.9,0.19,18.8,29.1,"16:11:04",1
"20/06/09","16:30",0.0,30.7,49.0,1010.9,256.9,1.3,3.2,224.7,0.18,18.8,29.2,"16:20:08",1
"20/06/09","16:40",0.0,30.2,49.2,1010.7,257.8,1.7,3.3,308.1,0.17,18.4,28.9,"16:33:12",1
"20/06/09","16:50",0.0,30.2,49.6,1010.7,261.0,1.3,3.6,214.1,0.12,18.5,28.9,"16:40:16",1
"20/06/09","17:00",0.0,30.0,50.1,1010.7,310.0,1.3,3.1,334.5,0.10,18.5,28.9,"16:58:48",1
"20/06/09","17:10",0.0,29.5,51.9,1010.4,331.5,2.1,4.1,322.9,0.10,18.6,28.6,"17:06:40",1
"20/06/09","17:20",0.0,29.5,52.1,1010.4,290.2,1.5,3.4,310.6,0.10,18.7,28.6,"17:10:08",1
"20/06/09","17:30",0.0,29.3,52.9,1010.2,269.6,1.5,3.7,226.6,0.08,18.7,28.5,"17:21:52",1
"20/06/09","17:40",0.0,29.1,53.2,1010.4,331.9,2.0,3.9,335.0,0.08,18.6,28.2,"17:37:12",1
"20/06/09","17:50",0.0,29.3,52.9,1010.7,281.9,1.1,2.7,349.1,0.08,18.7,28.6,"17:40:56",1
"20/06/09","18:00",0.0,28.8,53.3,1010.2,278.5,1.5,3.5,233.4,0.07,18.4,28.3,"17:54:16",1
"20/06/09","18:10",0.0,28.2,54.0,1010.4,261.7,1.3,2.9,278.7,0.04,18.1,28.2,"18:07:28",1
"20/06/09","18:20",0.0,27.9,55.0,1010.0,274.1,1.2,2.8,326.3,0.01,18.1,28.0,"18:18:40",1
"20/06/09","18:30",0.0,27.4,55.7,1010.0,279.5,1.3,2.9,228.2,0.00,17.8,27.9,"18:25:36",1
"20/06/09","18:40",0.0,27.0,55.5,1010.4,266.5,1.2,2.4,242.7,0.00,17.4,27.5,"18:32:40",1
"20/06/09","18:50",0.0,26.6,55.6,1010.4,285.2,1.1,2.7,245.4,0.00,17.0,27.5,"18:40:40",1
"20/06/09","19:00",0.0,26.3,56.2,1010.7,291.5,1.0,2.5,327.3,0.00,16.9,27.3,"18:52:16",1
"20/06/09","19:10",0.0,26.1,56.9,1010.7,289.4,1.2,3.2,243.8,0.00,16.9,26.9,"19:07:52",1
"20/06/09","19:20",0.0,25.8,57.8,1010.9,295.0,1.0,2.2,336.0,0.00,16.9,26.8,"19:13:28",1
"20/06/09","19:30",0.0,25.5,58.6,1010.9,270.5,0.5,1.2,330.3,0.00,16.8,26.6,"19:22:56",1
"20/06/09","19:40",0.0,25.2,59.3,1011.4,250.8,0.5,1.3,298.1,0.00,16.7,26.6,"19:36:08",1
"20/06/09","19:50",0.0,25.0,61.0,1011.2,321.3,0.7,1.4,328.2,0.00,17.0,26.3,"19:41:12",1
"20/06/09","20:00",0.0,24.7,62.0,1011.4,316.8,1.1,2.5,334.3,0.00,17.0,26.0,"19:58:32",1
"20/06/09","20:10",0.0,24.6,63.0,1011.2,346.8,1.2,2.5,352.0,0.00,17.1,26.1,"20:09:28",1
"20/06/09","20:20",0.0,24.4,63.7,1011.4,333.9,1.6,3.3,341.1,0.00,17.1,26.0,"20:13:28",1
"20/06/09","20:30",0.0,24.1,64.6,1011.6,351.3,1.2,2.2,352.6,0.00,17.1,25.6,"20:28:16",1
"20/06/09","20:40",0.0,24.0,65.4,1012.3,340.7,1.0,1.4,345.0,0.00,17.2,25.4,"20:36:16",1
"20/06/09","20:50",0.0,23.6,66.4,1012.3,335.9,1.1,2.1,318.4,0.00,17.0,25.3,"20:49:04",1
"20/06/09","21:00",0.0,23.5,67.4,1012.1,331.5,1.5,2.5,316.8,0.00,17.2,25.3,"20:50:32",1
"20/06/09","21:10",0.0,23.3,68.3,1012.3,325.2,1.7,2.8,340.1,0.00,17.2,25.2,"21:00:24",1
"20/06/09","21:20",0.0,22.9,69.4,1012.3,299.2,1.2,2.1,320.7,0.00,17.0,25.1,"21:15:12",1
"20/06/09","21:30",0.0,22.7,70.5,1012.6,303.5,1.3,2.2,336.5,0.00,17.1,24.9,"21:20:16",1
"20/06/09","21:40",0.0,22.5,71.9,1012.3,321.0,1.3,2.9,334.8,0.00,17.2,24.8,"21:32:48",1
"20/06/09","21:50",0.0,22.2,72.7,1012.3,273.2,1.2,2.1,263.4,0.00,17.1,24.4,"21:49:04",1
"20/06/09","22:00",0.0,22.0,73.3,1012.8,282.8,1.2,2.0,268.9,0.00,17.0,24.5,"21:53:36",1
"20/06/09","22:10",0.0,21.9,74.3,1012.6,317.6,1.5,2.4,328.3,0.00,17.2,24.3,"22:06:40",1
"20/06/09","22:20",0.0,21.7,75.0,1012.6,318.3,1.1,1.8,299.9,0.00,17.1,24.2,"22:11:20",1
"20/06/09","22:30",0.0,21.5,75.7,1012.6,304.8,1.0,1.4,319.1,0.00,17.1,24.3,"22:26:56",1
"20/06/09","22:40",0.0,21.5,76.9,1012.6,321.0,1.5,2.5,336.6,0.00,17.3,24.0,"22:37:36",1
"20/06/09","22:50",0.0,21.5,77.5,1012.3,315.0,1.2,2.4,333.8,0.00,17.4,24.1,"22:40:32",1
"20/06/09","23:00",0.0,21.3,77.9,1012.8,299.3,0.8,2.0,310.1,0.00,17.3,23.8,"22:58:56",1
"20/06/09","23:10",0.0,21.1,78.4,1012.8,293.1,1.0,2.0,322.4,0.00,17.2,23.8,"23:00:24",1
"20/06/09","23:20",0.0,20.9,78.8,1012.6,278.0,0.8,1.1,272.3,0.00,17.1,23.8,"23:17:04",1
"20/06/09","23:30",0.0,20.8,79.4,1012.6,273.5,1.1,1.4,280.4,0.00,17.1,23.5,"23:27:36",1
"20/06/09","23:40",0.0,20.7,79.8,1012.8,282.7,1.0,1.4,250.9,0.00,17.1,23.5,"23:30:24",1
"20/06/09","23:50",0.0,20.5,80.1,1012.6,296.0,0.8,1.6,327.8,0.00,17.0,23.5,"23:44:32",1
"20/06/09","24:00",0.0,20.4,80.4,1012.6,294.6,0.7,1.2,314.9,0.00,17.0,23.5,"23:50:48",1
